^^
Saratoga-Weather Station Historical Data
Daily Summary for March 3, 2020 Units:  Metric    English   Both
Daily Weekly Monthly Yearly Custom
  High: Low: Average:
Temperature: 4.9 °C 1.7 °C 3.4 °C
Dew Point: 3.8 °C 1 °C 2.4 °C
Humidity: 95% 89% 93%
Wind Speed: 14.3km/h 0km/h 3.5km/h
Wind Gust: 20.9km/h - -
Wind- - East
Pressure: 1012.5 hPa 986.5 hPa -
Precipitation: 2.0 mm    
Historical Graphs
 
 
Tabular Data for March 3, 2020
Time Temperature Dew Point Pressure Wind Wind Speed Wind Gust Humidity Rainfall Rate (Hourly) solar
00:02 1.7 °C 1 °C 1012.5 hPa Calm     95% 0.5 mm 0 W/m2
00:07 1.7 °C 1 °C 1012.5 hPa Calm     95% 0.5 mm 0 W/m2
00:12 1.7 °C 1 °C 1012.5 hPa Calm     95% 0.5 mm 0 W/m2
00:17 1.7 °C 1 °C 1012.2 hPa Calm     95% 0.5 mm 0 W/m2
00:22 1.7 °C 1 °C 1012.2 hPa East 1.4 km/h 1.6 km/h 95% 0.5 mm 0 W/m2
00:27 1.7 °C 1 °C 1012.2 hPa Calm   1.6 km/h 95% 0.5 mm 0 W/m2
00:32 1.7 °C 1 °C 1012.2 hPa Calm   1.6 km/h 95% 0.5 mm 0 W/m2
00:37 1.7 °C 1 °C 1011.9 hPa NE 3.2 km/h 4.8 km/h 95% 0.5 mm 0 W/m2
00:42 1.8 °C 1.1 °C 1011.9 hPa Calm   1.6 km/h 95% 0.5 mm 0 W/m2
00:48 1.8 °C 1.1 °C 1011.9 hPa Calm   4.8 km/h 95% 0.5 mm 0 W/m2
00:53 1.8 °C 1.1 °C 1011.9 hPa East 4.7 km/h 6.4 km/h 95% 0.2 mm 0 W/m2
00:58 1.8 °C 1.1 °C 1011.9 hPa Calm   4.8 km/h 95% 0.2 mm 0 W/m2
01:03 1.8 °C 1.1 °C 1011.5 hPa Calm   8 km/h 95% 0.2 mm 0 W/m2
01:08 1.8 °C 1.1 °C 1011.5 hPa Calm   3.2 km/h 95% 0.2 mm 0 W/m2
01:13 1.8 °C 1.1 °C 1011.5 hPa NNE 1.4 km/h 8 km/h 95% 0.2 mm 0 W/m2
01:18 1.8 °C 1.1 °C 1011.5 hPa NW 1.4 km/h 3.2 km/h 95% 0.2 mm 0 W/m2
01:23 1.9 °C 1.2 °C 1011.5 hPa NNW 1.4 km/h 8 km/h 95% 0.2 mm 0 W/m2
01:28 1.9 °C 1.2 °C 1011.2 hPa ENE 3.2 km/h 3.2 km/h 95% 0.2 mm 0 W/m2
01:33 1.9 °C 1.2 °C 1011.2 hPa NE 1.4 km/h 8 km/h 95% 0.0 mm 0 W/m2
01:38 1.9 °C 1.2 °C 1010.8 hPa Calm   3.2 km/h 95% 0.0 mm 0 W/m2
01:43 1.9 °C 1.2 °C 1010.8 hPa Calm   6.4 km/h 95% 0.0 mm 0 W/m2
01:48 2 °C 1.3 °C 1011.2 hPa NE 1.4 km/h 3.2 km/h 95% 0.0 mm 0 W/m2
01:53 2 °C 1.3 °C 1010.8 hPa Calm   4.8 km/h 95% 0.0 mm 0 W/m2
01:58 2 °C 1.3 °C 1010.8 hPa Calm   1.6 km/h 95% 0.0 mm 0 W/m2
02:03 2 °C 1.3 °C 1010.8 hPa ENE 1.4 km/h 4.8 km/h 95% 0.0 mm 0 W/m2
02:08 2 °C 1.3 °C 1010.8 hPa East 3.2 km/h 3.2 km/h 95% 0.0 mm 0 W/m2
02:13 2.1 °C 1.4 °C 1010.8 hPa East 1.4 km/h 1.6 km/h 95% 0.0 mm 0 W/m2
02:18 2.1 °C 1.4 °C 1010.5 hPa East 4.7 km/h 6.4 km/h 95% 0.0 mm 0 W/m2
02:23 2.1 °C 1.4 °C 1010.5 hPa ESE 3.2 km/h 4.8 km/h 95% 0.0 mm 0 W/m2
02:28 2.1 °C 1.4 °C 1010.5 hPa Calm   1.6 km/h 95% 0.0 mm 0 W/m2
02:33 2.1 °C 1.4 °C 1010.2 hPa SSW 1.4 km/h 3.2 km/h 95% 0.0 mm 0 W/m2
02:38 2.1 °C 1.4 °C 1010.2 hPa West 1.4 km/h 3.2 km/h 95% 0.0 mm 0 W/m2
02:43 2.1 °C 1.4 °C 1010.2 hPa Calm   1.6 km/h 95% 0.0 mm 0 W/m2
02:48 2.1 °C 1.4 °C 1010.2 hPa NNE 3.2 km/h 4.8 km/h 95% 0.0 mm 0 W/m2
02:53 2.1 °C 1.4 °C 1010.2 hPa Calm   1.6 km/h 95% 0.0 mm 0 W/m2
02:58 2.2 °C 1.5 °C 1010.2 hPa West 1.4 km/h 4.8 km/h 95% 0.0 mm 0 W/m2
03:03 2.2 °C 1.5 °C 1009.8 hPa Calm   1.6 km/h 95% 0.0 mm 0 W/m2
03:08 2.2 °C 1.5 °C 1009.8 hPa NNW 3.2 km/h 4.8 km/h 95% 0.0 mm 0 W/m2
03:13 2.2 °C 1.5 °C 1009.8 hPa WSW 4.7 km/h 4.8 km/h 95% 0.0 mm 0 W/m2
03:18 2.2 °C 1.5 °C 1009.8 hPa NW 1.4 km/h 3.2 km/h 95% 0.0 mm 0 W/m2
03:23 2.2 °C 1.5 °C 1009.5 hPa Calm   1.6 km/h 95% 0.0 mm 0 W/m2
03:28 2.2 °C 1.3 °C 1009.5 hPa Calm   3.2 km/h 94% 0.0 mm 0 W/m2
03:33 2.2 °C 1.3 °C 1009.5 hPa SE 1.4 km/h 4.8 km/h 94% 0.0 mm 0 W/m2
03:38 2.2 °C 1.3 °C 1009.1 hPa South 3.2 km/h 4.8 km/h 94% 0.0 mm 0 W/m2
03:43 2.2 °C 1.3 °C 1009.1 hPa Calm   1.6 km/h 94% 0.0 mm 0 W/m2
03:48 2.2 °C 1.3 °C 1009.1 hPa South 3.2 km/h 4.8 km/h 94% 0.0 mm 0 W/m2
03:53 2.2 °C 1.3 °C 1009.1 hPa WNW 3.2 km/h 4.8 km/h 94% 0.0 mm 0 W/m2
03:58 2.2 °C 1.3 °C 1008.8 hPa Calm   3.2 km/h 94% 0.0 mm 0 W/m2
04:03 2.2 °C 1.3 °C 1008.8 hPa Calm   3.2 km/h 94% 0.0 mm 0 W/m2
04:08 2.2 °C 1.3 °C 1008.8 hPa Calm   3.2 km/h 94% 0.0 mm 0 W/m2
04:13 2.2 °C 1.3 °C 1008.8 hPa NE 1.4 km/h 4.8 km/h 94% 0.0 mm 0 W/m2
04:18 2.2 °C 1.3 °C 1008.8 hPa Calm   1.6 km/h 94% 0.0 mm 0 W/m2
04:23 2.2 °C 1.3 °C 1008.8 hPa Calm   3.2 km/h 94% 0.0 mm 0 W/m2
04:28 2.2 °C 1.3 °C 1008.8 hPa ENE 3.2 km/h 3.2 km/h 94% 0.0 mm 0 W/m2
04:33 2.2 °C 1.3 °C 1008.8 hPa Calm   3.2 km/h 94% 0.0 mm 0 W/m2
04:38 2.2 °C 1.3 °C 1008.8 hPa ESE 1.4 km/h 4.8 km/h 94% 0.0 mm 0 W/m2
04:43 2.2 °C 1.3 °C 1008.8 hPa South 3.2 km/h 3.2 km/h 94% 0.0 mm 0 W/m2
04:48 2.2 °C 1.3 °C 1008.8 hPa Calm   4.8 km/h 94% 0.0 mm 0 W/m2
04:53 2.2 °C 1.3 °C 1008.5 hPa ESE 1.4 km/h 3.2 km/h 94% 0.0 mm 0 W/m2
04:58 2.2 °C 1.3 °C 1008.5 hPa Calm   3.2 km/h 94% 0.0 mm 0 W/m2
05:03 2.2 °C 1.3 °C 1008.5 hPa SSW 1.4 km/h 4.8 km/h 94% 0.0 mm 0 W/m2
05:08 2.3 °C 1.4 °C 1008.5 hPa Calm   1.6 km/h 94% 0.0 mm 0 W/m2
05:13 2.3 °C 1.4 °C 1008.5 hPa Calm   1.6 km/h 94% 0.0 mm 0 W/m2
05:18 2.3 °C 1.4 °C 1008.1 hPa ENE 1.4 km/h 4.8 km/h 94% 0.0 mm 0 W/m2
05:23 2.3 °C 1.4 °C 1008.1 hPa NNE 3.2 km/h 6.4 km/h 94% 0.0 mm 0 W/m2
05:28 2.3 °C 1.4 °C 1008.1 hPa Calm   1.6 km/h 94% 0.0 mm 0 W/m2
05:33 2.3 °C 1.4 °C 1007.8 hPa ESE 1.4 km/h 6.4 km/h 94% 0.0 mm 0 W/m2
05:38 2.4 °C 1.5 °C 1007.8 hPa SE 1.4 km/h 9.7 km/h 94% 0.0 mm 0 W/m2
05:43 2.4 °C 1.5 °C 1007.8 hPa Calm   3.2 km/h 94% 0.0 mm 0 W/m2
05:48 2.4 °C 1.5 °C 1007.8 hPa ENE 3.2 km/h 3.2 km/h 94% 0.0 mm 0 W/m2
05:53 2.4 °C 1.5 °C 1007.5 hPa NNE 1.4 km/h 6.4 km/h 94% 0.0 mm 0 W/m2
05:58 2.4 °C 1.5 °C 1007.8 hPa Calm   4.8 km/h 94% 0.0 mm 0 W/m2
06:03 2.4 °C 1.5 °C 1007.8 hPa ENE 1.4 km/h 4.8 km/h 94% 0.0 mm 0 W/m2
06:08 2.4 °C 1.5 °C 1007.5 hPa Calm   4.8 km/h 94% 0.0 mm 0 W/m2
06:13 2.5 °C 1.6 °C 1007.5 hPa Calm   6.4 km/h 94% 0.0 mm 0 W/m2
06:18 2.5 °C 1.6 °C 1007.5 hPa ENE 1.4 km/h 3.2 km/h 94% 0.0 mm 0 W/m2
06:23 2.5 °C 1.6 °C 1007.5 hPa Calm   6.4 km/h 94% 0.0 mm 0 W/m2
06:28 2.5 °C 1.8 °C 1007.1 hPa Calm   9.7 km/h 95% 0.0 mm 0 W/m2
06:33 2.6 °C 1.9 °C 1007.1 hPa East 3.2 km/h 4.8 km/h 95% 0.0 mm 0 W/m2
06:38 2.6 °C 1.9 °C 1007.1 hPa East 6.4 km/h 9.7 km/h 95% 0.0 mm 0 W/m2
06:43 2.6 °C 1.9 °C 1007.1 hPa Calm   3.2 km/h 95% 0.0 mm 0 W/m2
06:48 2.6 °C 1.9 °C 1007.1 hPa East 6.4 km/h 6.4 km/h 95% 0.0 mm 0 W/m2
06:53 2.6 °C 1.9 °C 1007.1 hPa East 3.2 km/h 3.2 km/h 95% 0.0 mm 0 W/m2
06:58 2.7 °C 2 °C 1006.8 hPa NNE 4.7 km/h 4.8 km/h 95% 0.0 mm 0 W/m2
07:03 2.7 °C 2 °C 1006.8 hPa NE 1.4 km/h 4.8 km/h 95% 0.0 mm 0 W/m2
07:08 2.7 °C 2 °C 1006.8 hPa Calm   1.6 km/h 95% 0.0 mm 0 W/m2
07:13 2.7 °C 2 °C 1006.8 hPa East 4.7 km/h 6.4 km/h 95% 0.0 mm 0 W/m2
07:18 2.7 °C 2 °C 1006.8 hPa ENE 1.4 km/h 9.7 km/h 95% 0.0 mm 0 W/m2
07:23 2.7 °C 2 °C 1006.8 hPa NNW 1.4 km/h 3.2 km/h 95% 0.0 mm 0 W/m2
07:28 2.7 °C 2 °C 1006.4 hPa NNE 1.4 km/h 3.2 km/h 95% 0.0 mm 0 W/m2
07:33 2.7 °C 2 °C 1006.4 hPa East 4.7 km/h 4.8 km/h 95% 0.0 mm 0 W/m2
07:38 2.7 °C 2 °C 1006.4 hPa East 3.2 km/h 3.2 km/h 95% 0.0 mm 0 W/m2
07:43 2.7 °C 2 °C 1006.4 hPa East 4.7 km/h 4.8 km/h 95% 0.0 mm 0 W/m2
07:48 2.7 °C 2 °C 1006.1 hPa East 4.7 km/h 4.8 km/h 95% 0.0 mm 0 W/m2
07:53 2.6 °C 1.9 °C 1006.1 hPa NE 4.7 km/h 4.8 km/h 95% 0.0 mm 0 W/m2
07:58 2.6 °C 1.9 °C 1006.1 hPa ENE 1.4 km/h 4.8 km/h 95% 0.0 mm 0 W/m2
08:03 2.6 °C 1.9 °C 1006.1 hPa Calm   3.2 km/h 95% 0.0 mm 0 W/m2
08:08 2.7 °C 2 °C 1005.8 hPa ENE 6.4 km/h 8 km/h 95% 0.0 mm 0 W/m2
08:13 2.7 °C 2 °C 1005.8 hPa East 3.2 km/h 4.8 km/h 95% 0.0 mm 0 W/m2
08:18 2.7 °C 2 °C 1005.8 hPa SE 4.7 km/h 6.4 km/h 95% 0.0 mm 0 W/m2
08:23 2.6 °C 1.9 °C 1005.8 hPa ENE 3.2 km/h 6.4 km/h 95% 0.0 mm 0 W/m2
08:28 2.6 °C 1.9 °C 1005.8 hPa ENE 1.4 km/h 9.7 km/h 95% 0.0 mm 0 W/m2
08:33 2.5 °C 1.6 °C 1005.4 hPa East 3.2 km/h 6.4 km/h 94% 0.0 mm 0 W/m2
08:38 2.4 °C 1.5 °C 1005.8 hPa Calm   9.7 km/h 94% 0.0 mm 0 W/m2
08:43 2.4 °C 1.7 °C 1005.4 hPa East 3.2 km/h 6.4 km/h 95% 0.0 mm 5 W/m2
08:48 2.4 °C 1.7 °C 1005.4 hPa SE 3.2 km/h 6.4 km/h 95% 0.0 mm 5 W/m2
08:53 2.5 °C 1.8 °C 1005.4 hPa ENE 4.7 km/h 11.3 km/h 95% 0.0 mm 5 W/m2
08:58 2.5 °C 1.8 °C 1005.1 hPa Calm   11.3 km/h 95% 0.0 mm 5 W/m2
09:03 2.5 °C 1.8 °C 1005.1 hPa ENE 3.2 km/h 8 km/h 95% 0.0 mm 5 W/m2
09:08 2.6 °C 1.9 °C 1005.1 hPa ESE 1.4 km/h 11.3 km/h 95% 0.0 mm 9 W/m2
09:13 2.6 °C 1.9 °C 1005.1 hPa ENE 4.7 km/h 6.4 km/h 95% 0.0 mm 7 W/m2
09:18 2.7 °C 2 °C 1005.1 hPa East 1.4 km/h 4.8 km/h 95% 0.0 mm 9 W/m2
09:23 2.7 °C 2 °C 1005.1 hPa NE 4.7 km/h 4.8 km/h 95% 0.0 mm 11 W/m2
09:28 2.7 °C 2 °C 1005.1 hPa ENE 1.4 km/h 3.2 km/h 95% 0.0 mm 12 W/m2
09:33 2.8 °C 2.1 °C 1005.1 hPa Calm   4.8 km/h 95% 0.0 mm 11 W/m2
09:38 2.8 °C 2.1 °C 1005.1 hPa Calm   4.8 km/h 95% 0.0 mm 11 W/m2
09:43 2.8 °C 2.1 °C 1005.1 hPa East 3.2 km/h 6.4 km/h 95% 0.0 mm 11 W/m2
09:48 2.9 °C 2.2 °C 1005.1 hPa East 4.7 km/h 4.8 km/h 95% 0.0 mm 11 W/m2
09:53 2.9 °C 2.2 °C 1004.7 hPa NE 1.4 km/h 8 km/h 95% 0.0 mm 14 W/m2
09:58 2.9 °C 2.2 °C 1004.7 hPa East 1.4 km/h 6.4 km/h 95% 0.0 mm 19 W/m2
10:03 2.9 °C 2 °C 1004.7 hPa ENE 4.7 km/h 8 km/h 94% 0.0 mm 21 W/m2
10:08 2.9 °C 2 °C 1004.4 hPa ENE 3.2 km/h 4.8 km/h 94% 0.0 mm 21 W/m2
10:13 2.9 °C 2 °C 1004.4 hPa East 3.2 km/h 6.4 km/h 94% 0.0 mm 25 W/m2
10:19 3 °C 2.3 °C 1004.4 hPa ENE 1.4 km/h 8 km/h 95% 0.0 mm 32 W/m2
10:24 3.1 °C 2.4 °C 1004.4 hPa ENE 1.4 km/h 4.8 km/h 95% 0.0 mm 42 W/m2
10:29 3.2 °C 2.5 °C 1004.1 hPa ENE 1.4 km/h 3.2 km/h 95% 0.0 mm 76 W/m2
10:34 3.2 °C 2.5 °C 1004.1 hPa ENE 4.7 km/h 6.4 km/h 95% 0.0 mm 58 W/m2
10:39 3.3 °C 2.6 °C 1004.1 hPa East 3.2 km/h 8 km/h 95% 0.0 mm 49 W/m2
10:44 3.4 °C 2.5 °C 1004.1 hPa NNE 1.4 km/h 4.8 km/h 94% 0.0 mm 30 W/m2
10:49 3.4 °C 2.5 °C 1004.1 hPa East 1.4 km/h 3.2 km/h 94% 0.0 mm 33 W/m2
10:54 3.4 °C 2.5 °C 1003.7 hPa ENE 1.4 km/h 4.8 km/h 94% 0.0 mm 46 W/m2
10:59 3.4 °C 2.5 °C 1003.7 hPa ESE 3.2 km/h 4.8 km/h 94% 0.0 mm 54 W/m2
11:04 3.5 °C 2.6 °C 1003.7 hPa NE 1.4 km/h 3.2 km/h 94% 0.0 mm 42 W/m2
11:09 3.6 °C 2.7 °C 1003.7 hPa ENE 1.4 km/h 4.8 km/h 94% 0.0 mm 56 W/m2
11:14 3.6 °C 2.7 °C 1003.7 hPa East 6.4 km/h 8 km/h 94% 0.0 mm 51 W/m2
11:19 3.7 °C 2.8 °C 1003.4 hPa NNE 3.2 km/h 8 km/h 94% 0.0 mm 49 W/m2
11:24 3.7 °C 2.8 °C 1003.0 hPa East 3.2 km/h 6.4 km/h 94% 0.0 mm 42 W/m2
11:29 3.8 °C 2.8 °C 1003.0 hPa East 4.7 km/h 8 km/h 93% 0.0 mm 70 W/m2
11:34 3.8 °C 2.8 °C 1003.0 hPa East 4.7 km/h 4.8 km/h 93% 0.0 mm 53 W/m2
11:39 3.8 °C 2.8 °C 1002.7 hPa ENE 3.2 km/h 4.8 km/h 93% 0.0 mm 47 W/m2
11:44 3.8 °C 2.8 °C 1002.7 hPa East 6.4 km/h 6.4 km/h 93% 0.0 mm 42 W/m2
11:49 3.8 °C 2.8 °C 1002.7 hPa SE 1.4 km/h 6.4 km/h 93% 0.0 mm 44 W/m2
11:54 3.8 °C 2.8 °C 1002.4 hPa East 4.7 km/h 9.7 km/h 93% 0.0 mm 65 W/m2
11:59 3.8 °C 2.9 °C 1002.4 hPa ENE 4.7 km/h 12.9 km/h 94% 0.0 mm 69 W/m2
12:04 3.8 °C 2.9 °C 1002.0 hPa ESE 4.7 km/h 4.8 km/h 94% 0.0 mm 44 W/m2
12:09 3.8 °C 2.8 °C 1002.0 hPa ENE 4.7 km/h 12.9 km/h 93% 0.0 mm 40 W/m2
12:14 3.7 °C 2.7 °C 1002.0 hPa East 6.4 km/h 8 km/h 93% 0.0 mm 42 W/m2
12:19 3.7 °C 2.8 °C 1001.7 hPa East 3.2 km/h 6.4 km/h 94% 0.0 mm 40 W/m2
12:24 3.7 °C 2.8 °C 1001.7 hPa ESE 1.4 km/h 4.8 km/h 94% 0.0 mm 51 W/m2
12:29 3.7 °C 2.8 °C 1001.4 hPa East 1.4 km/h 8 km/h 94% 0.0 mm 42 W/m2
12:34 3.7 °C 2.8 °C 1001.4 hPa East 3.2 km/h 8 km/h 94% 0.0 mm 42 W/m2
12:39 3.6 °C 2.7 °C 1001.4 hPa East 1.4 km/h 12.9 km/h 94% 0.0 mm 42 W/m2
12:44 3.6 °C 2.7 °C 1001.0 hPa East 3.2 km/h 6.4 km/h 94% 0.0 mm 44 W/m2
12:49 3.6 °C 2.7 °C 1001.0 hPa ESE 3.2 km/h 12.9 km/h 94% 0.0 mm 40 W/m2
12:54 3.6 °C 2.7 °C 1000.7 hPa NE 4.7 km/h 8 km/h 94% 0.0 mm 33 W/m2
12:59 3.6 °C 2.7 °C 1000.7 hPa ENE 7.9 km/h 11.3 km/h 94% 0.0 mm 37 W/m2
13:04 3.6 °C 2.7 °C 1000.7 hPa ESE 1.4 km/h 14.5 km/h 94% 0.0 mm 37 W/m2
13:09 3.6 °C 2.7 °C 1000.3 hPa ENE 3.2 km/h 11.3 km/h 94% 0.0 mm 28 W/m2
13:14 3.6 °C 2.7 °C 1000.3 hPa ESE 4.7 km/h 14.5 km/h 94% 0.0 mm 35 W/m2
13:19 3.6 °C 2.7 °C 1000.3 hPa North 1.4 km/h 4.8 km/h 94% 0.0 mm 33 W/m2
13:24 3.7 °C 2.8 °C 1000.0 hPa ESE 1.4 km/h 8 km/h 94% 0.0 mm 32 W/m2
13:29 3.7 °C 2.8 °C 1000.0 hPa ESE 4.7 km/h 11.3 km/h 94% 0.0 mm 28 W/m2
13:34 3.7 °C 2.8 °C 999.7 hPa East 1.4 km/h 8 km/h 94% 0.0 mm 30 W/m2
13:39 3.8 °C 2.9 °C 999.7 hPa ENE 1.4 km/h 4.8 km/h 94% 0.0 mm 33 W/m2
13:44 3.8 °C 2.9 °C 999.3 hPa NE 3.2 km/h 11.3 km/h 94% 0.0 mm 40 W/m2
13:49 3.9 °C 2.9 °C 999.3 hPa ENE 1.4 km/h 6.4 km/h 93% 0.0 mm 37 W/m2
13:54 4.1 °C 3.1 °C 999.3 hPa East 4.7 km/h 8 km/h 93% 0.0 mm 40 W/m2
13:59 4.1 °C 3.1 °C 999.0 hPa ENE 3.2 km/h 6.4 km/h 93% 0.0 mm 39 W/m2
14:04 4.2 °C 3 °C 999.0 hPa SE 1.4 km/h 11.3 km/h 92% 0.0 mm 33 W/m2
14:09 4.2 °C 3 °C 998.6 hPa East 4.7 km/h 8 km/h 92% 0.0 mm 30 W/m2
14:14 4.3 °C 3.1 °C 998.6 hPa ENE 3.2 km/h 11.3 km/h 92% 0.0 mm 30 W/m2
14:19 4.3 °C 3.1 °C 998.6 hPa East 6.4 km/h 11.3 km/h 92% 0.0 mm 33 W/m2
14:24 4.3 °C 3.1 °C 998.3 hPa NE 4.7 km/h 4.8 km/h 92% 0.0 mm 35 W/m2
14:29 4.3 °C 3.1 °C 998.3 hPa East 6.4 km/h 11.3 km/h 92% 0.0 mm 37 W/m2
14:34 4.4 °C 3.2 °C 998.3 hPa Calm   9.7 km/h 92% 0.0 mm 30 W/m2
14:39 4.4 °C 3.1 °C 998.0 hPa ENE 3.2 km/h 6.4 km/h 91% 0.0 mm 23 W/m2
14:44 4.4 °C 3.1 °C 998.0 hPa Calm   6.4 km/h 91% 0.0 mm 23 W/m2
14:49 4.4 °C 3.1 °C 998.0 hPa ESE 3.2 km/h 9.7 km/h 91% 0.0 mm 19 W/m2
14:54 4.4 °C 3.1 °C 998.0 hPa ENE 3.2 km/h 9.7 km/h 91% 0.0 mm 16 W/m2
14:59 4.5 °C 3.2 °C 998.0 hPa East 3.2 km/h 6.4 km/h 91% 0.0 mm 12 W/m2
15:04 4.5 °C 3.2 °C 997.6 hPa NNE 3.2 km/h 6.4 km/h 91% 0.0 mm 12 W/m2
15:09 4.5 °C 3.2 °C 997.6 hPa ENE 4.7 km/h 12.9 km/h 91% 0.0 mm 11 W/m2
15:14 4.5 °C 3.2 °C 997.6 hPa East 13 km/h 12.9 km/h 91% 0.0 mm 12 W/m2
15:19 4.5 °C 3.2 °C 997.3 hPa ENE 6.4 km/h 8 km/h 91% 0.0 mm 12 W/m2
15:24 4.6 °C 3.3 °C 997.3 hPa ENE 3.2 km/h 6.4 km/h 91% 0.0 mm 12 W/m2
15:29 4.6 °C 3.3 °C 997.3 hPa ENE 6.4 km/h 11.3 km/h 91% 0.0 mm 12 W/m2
15:34 4.6 °C 3.3 °C 997.0 hPa ESE 6.4 km/h 11.3 km/h 91% 0.0 mm 11 W/m2
15:39 4.6 °C 3.3 °C 997.0 hPa ENE 6.4 km/h 8 km/h 91% 0.0 mm 11 W/m2
15:44 4.6 °C 3.3 °C 997.0 hPa ENE 4.7 km/h 6.4 km/h 91% 0.0 mm 7 W/m2
15:49 4.6 °C 3.3 °C 997.0 hPa East 6.4 km/h 8 km/h 91% 0.0 mm 5 W/m2
15:54 4.7 °C 3.4 °C 997.0 hPa East 4.7 km/h 8 km/h 91% 0.0 mm 5 W/m2
15:59 4.7 °C 3.4 °C 996.6 hPa ENE 3.2 km/h 9.7 km/h 91% 0.0 mm 5 W/m2
16:04 4.7 °C 3.4 °C 996.6 hPa East 4.7 km/h 12.9 km/h 91% 0.0 mm 5 W/m2
16:09 4.7 °C 3.4 °C 996.6 hPa ENE 3.2 km/h 8 km/h 91% 0.0 mm 5 W/m2
16:14 4.7 °C 3.4 °C 996.3 hPa East 6.4 km/h 11.3 km/h 91% 0.0 mm 0 W/m2
16:19 4.8 °C 3.5 °C 996.3 hPa ENE 4.7 km/h 9.7 km/h 91% 0.0 mm 0 W/m2
16:24 4.8 °C 3.5 °C 995.9 hPa East 6.4 km/h 9.7 km/h 91% 0.0 mm 0 W/m2
16:29 4.8 °C 3.3 °C 995.9 hPa ENE 3.2 km/h 11.3 km/h 90% 0.0 mm 0 W/m2
16:34 4.9 °C 3.4 °C 995.9 hPa East 6.4 km/h 11.3 km/h 90% 0.0 mm 0 W/m2
16:39 4.9 °C 3.4 °C 995.6 hPa ESE 4.7 km/h 11.3 km/h 90% 0.0 mm 0 W/m2
16:44 4.9 °C 3.4 °C 995.6 hPa ESE 4.7 km/h 11.3 km/h 90% 0.0 mm 0 W/m2
16:49 4.9 °C 3.4 °C 995.6 hPa East 6.4 km/h 12.9 km/h 90% 0.0 mm 0 W/m2
16:54 4.9 °C 3.4 °C 995.6 hPa ENE 4.7 km/h 9.7 km/h 90% 0.0 mm 0 W/m2
16:59 4.9 °C 3.4 °C 995.3 hPa ESE 3.2 km/h 6.4 km/h 90% 0.0 mm 0 W/m2
17:04 4.9 °C 3.4 °C 995.3 hPa East 6.4 km/h 11.3 km/h 90% 0.0 mm 0 W/m2
17:09 4.9 °C 3.2 °C 995.3 hPa NNE 1.4 km/h 17.7 km/h 89% 0.0 mm 0 W/m2
17:14 4.9 °C 3.2 °C 995.3 hPa East 9.7 km/h 11.3 km/h 89% 0.0 mm 0 W/m2
17:19 4.9 °C 3.2 °C 994.9 hPa ENE 7.9 km/h 17.7 km/h 89% 0.0 mm 0 W/m2
17:24 4.9 °C 3.2 °C 994.9 hPa ESE 11.1 km/h 17.7 km/h 89% 0.0 mm 0 W/m2
17:29 4.9 °C 3.2 °C 994.6 hPa East 9.7 km/h 17.7 km/h 89% 0.0 mm 0 W/m2
17:34 4.9 °C 3.2 °C 994.6 hPa ENE 7.9 km/h 14.5 km/h 89% 0.0 mm 0 W/m2
17:39 4.9 °C 3.2 °C 994.2 hPa ENE 3.2 km/h 17.7 km/h 89% 0.0 mm 0 W/m2
17:44 4.9 °C 3.2 °C 994.2 hPa NE 6.4 km/h 14.5 km/h 89% 0.0 mm 0 W/m2
17:49 4.9 °C 3.2 °C 994.2 hPa NNE 1.4 km/h 11.3 km/h 89% 0.0 mm 0 W/m2
17:54 4.9 °C 3.2 °C 993.9 hPa ENE 1.4 km/h 11.3 km/h 89% 0.0 mm 0 W/m2
17:59 4.8 °C 3.1 °C 993.9 hPa East 11.1 km/h 16.1 km/h 89% 0.0 mm 0 W/m2
18:04 4.8 °C 3.1 °C 993.9 hPa East 6.4 km/h 11.3 km/h 89% 0.0 mm 0 W/m2
18:09 4.8 °C 3.1 °C 993.6 hPa NE 4.7 km/h 14.5 km/h 89% 0.0 mm 0 W/m2
18:14 4.8 °C 3.1 °C 993.6 hPa ENE 6.4 km/h 6.4 km/h 89% 0.0 mm 0 W/m2
18:19 4.8 °C 3.1 °C 993.6 hPa ENE 3.2 km/h 11.3 km/h 89% 0.0 mm 0 W/m2
18:24 4.7 °C 3 °C 993.6 hPa East 9.7 km/h 11.3 km/h 89% 0.0 mm 0 W/m2
18:29 4.7 °C 3 °C 993.2 hPa ESE 1.4 km/h 4.8 km/h 89% 0.0 mm 0 W/m2
18:34 4.6 °C 3.1 °C 993.2 hPa East 6.4 km/h 14.5 km/h 90% 0.0 mm 0 W/m2
18:39 4.6 °C 3.1 °C 993.2 hPa East 3.2 km/h 8 km/h 90% 0.0 mm 0 W/m2
18:44 4.6 °C 3.1 °C 992.9 hPa ENE 4.7 km/h 14.5 km/h 90% 0.0 mm 0 W/m2
18:49 4.5 °C 3 °C 992.9 hPa NNE 1.4 km/h 8 km/h 90% 0.0 mm 0 W/m2
18:54 4.5 °C 3 °C 992.9 hPa ENE 6.4 km/h 16.1 km/h 90% 0.0 mm 0 W/m2
18:59 4.4 °C 2.9 °C 992.9 hPa East 7.9 km/h 8 km/h 90% 0.0 mm 0 W/m2
19:04 4.4 °C 2.9 °C 992.5 hPa ESE 6.4 km/h 17.7 km/h 90% 0.0 mm 0 W/m2
19:09 4.4 °C 2.9 °C 992.5 hPa ESE 4.7 km/h 9.7 km/h 90% 0.0 mm 0 W/m2
19:14 4.4 °C 2.9 °C 992.5 hPa ENE 4.7 km/h 17.7 km/h 90% 0.0 mm 0 W/m2
19:19 4.3 °C 2.8 °C 992.2 hPa East 4.7 km/h 14.5 km/h 90% 0.0 mm 0 W/m2
19:24 4.3 °C 2.8 °C 992.2 hPa South 1.4 km/h 6.4 km/h 90% 0.0 mm 0 W/m2
19:29 4.3 °C 2.8 °C 992.2 hPa ENE 7.9 km/h 12.9 km/h 90% 0.0 mm 0 W/m2
19:34 4.3 °C 2.8 °C 992.2 hPa SE 3.2 km/h 9.7 km/h 90% 0.2 mm 0 W/m2
19:39 4.3 °C 2.8 °C 991.9 hPa East 3.2 km/h 17.7 km/h 90% 0.2 mm 0 W/m2
19:44 4.3 °C 2.8 °C 991.9 hPa NE 6.4 km/h 12.9 km/h 90% 0.2 mm 0 W/m2
19:49 4.3 °C 2.8 °C 991.9 hPa Calm   17.7 km/h 90% 0.2 mm 0 W/m2
19:55 4.3 °C 3 °C 991.5 hPa SE 1.4 km/h 8 km/h 91% 0.2 mm 0 W/m2
20:00 4.2 °C 2.9 °C 991.5 hPa ESE 3.2 km/h 17.7 km/h 91% 0.5 mm 0 W/m2
20:05 4.2 °C 2.9 °C 991.5 hPa ENE 4.7 km/h 4.8 km/h 91% 0.5 mm 0 W/m2
20:10 4.2 °C 2.9 °C 991.5 hPa East 1.4 km/h 17.7 km/h 91% 0.5 mm 0 W/m2
20:15 4.1 °C 2.9 °C 991.2 hPa SE 4.7 km/h 9.7 km/h 92% 0.5 mm 0 W/m2
20:20 4.1 °C 2.9 °C 991.2 hPa ESE 1.4 km/h 14.5 km/h 92% 0.5 mm 0 W/m2
20:25 4.1 °C 2.9 °C 991.2 hPa ENE 4.7 km/h 11.3 km/h 92% 0.5 mm 0 W/m2
20:30 4.1 °C 2.9 °C 990.9 hPa East 3.2 km/h 16.1 km/h 92% 0.5 mm 0 W/m2
20:35 4.1 °C 2.9 °C 990.9 hPa ENE 3.2 km/h 8 km/h 92% 0.5 mm 0 W/m2
20:40 4.1 °C 2.9 °C 990.9 hPa East 9.7 km/h 14.5 km/h 92% 0.5 mm 0 W/m2
20:45 4.1 °C 2.9 °C 990.5 hPa ENE 3.2 km/h 12.9 km/h 92% 0.5 mm 0 W/m2
20:50 4.1 °C 2.9 °C 990.5 hPa ENE 4.7 km/h 6.4 km/h 92% 0.5 mm 0 W/m2
20:55 4.1 °C 2.9 °C 990.2 hPa ENE 4.7 km/h 12.9 km/h 92% 0.5 mm 0 W/m2
21:00 4.1 °C 2.9 °C 990.2 hPa ENE 3.2 km/h 8 km/h 92% 0.2 mm 0 W/m2
21:05 4.1 °C 2.9 °C 990.2 hPa East 9.7 km/h 9.7 km/h 92% 0.2 mm 0 W/m2
21:10 4.1 °C 2.9 °C 990.2 hPa East 3.2 km/h 9.7 km/h 92% 0.2 mm 0 W/m2
21:15 4.1 °C 2.9 °C 989.8 hPa ENE 4.7 km/h 12.9 km/h 92% 0.0 mm 0 W/m2
21:20 4.1 °C 2.9 °C 989.8 hPa ESE 6.4 km/h 6.4 km/h 92% 0.0 mm 0 W/m2
21:25 4.1 °C 2.9 °C 989.8 hPa ENE 3.2 km/h 12.9 km/h 92% 0.0 mm 0 W/m2
21:30 4.1 °C 2.9 °C 989.5 hPa East 11.1 km/h 12.9 km/h 92% 0.0 mm 0 W/m2
21:35 4.2 °C 3 °C 989.5 hPa ENE 14.3 km/h 14.5 km/h 92% 0.0 mm 0 W/m2
21:40 4.2 °C 3 °C 989.5 hPa East 7.9 km/h 11.3 km/h 92% 0.0 mm 0 W/m2
21:45 4.2 °C 3 °C 989.2 hPa ESE 3.2 km/h 11.3 km/h 92% 0.0 mm 0 W/m2
21:50 4.2 °C 3 °C 989.2 hPa NNE 6.4 km/h 11.3 km/h 92% 0.2 mm 0 W/m2
21:55 4.2 °C 3 °C 988.8 hPa East 3.2 km/h 9.7 km/h 92% 0.2 mm 0 W/m2
22:00 4.2 °C 3.2 °C 988.8 hPa East 13 km/h 12.9 km/h 93% 0.2 mm 0 W/m2
22:05 4.2 °C 3.2 °C 988.8 hPa ENE 7.9 km/h 20.9 km/h 93% 0.2 mm 0 W/m2
22:10 4.2 °C 3.2 °C 988.8 hPa NE 6.4 km/h 11.3 km/h 93% 0.2 mm 0 W/m2
22:15 4.2 °C 3.2 °C 988.8 hPa NE 6.4 km/h 20.9 km/h 93% 0.2 mm 0 W/m2
22:20 4.2 °C 3.2 °C 988.5 hPa East 4.7 km/h 14.5 km/h 93% 0.2 mm 0 W/m2
22:25 4.2 °C 3.2 °C 988.5 hPa ENE 6.4 km/h 12.9 km/h 93% 0.5 mm 0 W/m2
22:30 4.2 °C 3.3 °C 988.1 hPa East 3.2 km/h 6.4 km/h 94% 0.5 mm 0 W/m2
22:35 4.2 °C 3.3 °C 988.1 hPa ENE 4.7 km/h 8 km/h 94% 0.5 mm 0 W/m2
22:40 4.2 °C 3.3 °C 988.1 hPa Calm   14.5 km/h 94% 0.5 mm 0 W/m2
22:45 4.2 °C 3.3 °C 988.1 hPa ENE 4.7 km/h 11.3 km/h 94% 0.5 mm 0 W/m2
22:50 4.2 °C 3.3 °C 988.1 hPa NNE 3.2 km/h 12.9 km/h 94% 0.5 mm 0 W/m2
22:55 4.3 °C 3.4 °C 987.8 hPa ENE 7.9 km/h 17.7 km/h 94% 0.5 mm 0 W/m2
23:00 4.3 °C 3.4 °C 987.8 hPa ENE 9.7 km/h 9.7 km/h 94% 0.5 mm 0 W/m2
23:05 4.3 °C 3.4 °C 987.5 hPa East 4.7 km/h 11.3 km/h 94% 0.5 mm 0 W/m2
23:10 4.3 °C 3.4 °C 987.5 hPa ESE 6.4 km/h 8 km/h 94% 0.5 mm 0 W/m2
23:15 4.3 °C 3.4 °C 987.1 hPa NNE 3.2 km/h 14.5 km/h 94% 0.5 mm 0 W/m2
23:20 4.3 °C 3.4 °C 987.1 hPa ESE 11.1 km/h 14.5 km/h 94% 0.5 mm 0 W/m2
23:25 4.3 °C 3.4 °C 987.1 hPa ENE 9.7 km/h 17.7 km/h 94% 0.5 mm 0 W/m2
23:30 4.3 °C 3.4 °C 987.1 hPa ENE 4.7 km/h 8 km/h 94% 0.5 mm 0 W/m2
23:35 4.3 °C 3.4 °C 987.1 hPa East 11.1 km/h 17.7 km/h 94% 0.5 mm 0 W/m2
23:40 4.4 °C 3.5 °C 986.8 hPa NE 3.2 km/h 11.3 km/h 94% 0.5 mm 0 W/m2
23:45 4.4 °C 3.5 °C 986.5 hPa ENE 6.4 km/h 19.3 km/h 94% 0.5 mm 0 W/m2
23:50 4.4 °C 3.7 °C 986.5 hPa ENE 3.2 km/h 12.9 km/h 95% 0.5 mm 0 W/m2
23:55 4.5 °C 3.8 °C 986.5 hPa SE 13 km/h 14.5 km/h 95% 0.5 mm 0 W/m2
Juneau County Weather
Compliments of Weather Underground - 4 mb